STARLINK-1644 1 46532U 20070A 21065.83125365 .00001004 00000-0 86278-4 0 9996 2 46532 53.0575 106.6532 0001290 64.1652 295.9470 15.06401875 23879 STARLINK-1648 1 46533U 20070B 21065.50966025 .00000613 00000-0 60052-4 0 9994 2 46533 53.0570 108.1006 0001115 62.7552 297.3550 15.06393761 23809 STARLINK-1659 1 46534U 20070C 21065.42582004 -.00000854 00000-0 -38454-4 0 9997 2 46534 53.0591 108.4802 0001668 66.1951 293.9212 15.06381295 23798 STARLINK-1663 1 46535U 20070D 21065.48110595 -.00000745 00000-0 -31134-4 0 9993 2 46535 53.0604 108.2341 0001319 74.6072 285.5063 15.06397690 23798 STARLINK-1668 1 46536U 20070E 21065.84231656 -.00000690 00000-0 -27341-4 0 9990 2 46536 53.0585 106.6306 0003801 23.8808 336.2356 15.06398345 23877 STARLINK-1672 1 46537U 20070F 21065.83862966 .00000619 00000-0 60426-4 0 9994 2 46537 53.0565 106.6216 0001331 67.8610 292.2520 15.06395881 23563 STARLINK-1678 1 46538U 20070G 21065.48477879 -.00000524 00000-0 -16270-4 0 9996 2 46538 53.0596 108.2125 0001407 59.4512 300.6616 15.06401342 23792 STARLINK-1684 1 46539U 20070H 21065.41490646 -.00000208 00000-0 51550-5 0 9996 2 46539 53.0557 108.5216 0006848 338.7270 21.3434 15.07218431 23793 STARLINK-1685 1 46540U 20070J 21065.45115569 -.00000952 00000-0 -44890-4 0 9995 2 46540 53.0595 93.3696 0005196 100.1114 260.0461 15.06401121 24009 STARLINK-1687 1 46541U 20070K 21065.33180862 .00000670 00000-0 63825-4 0 9995 2 46541 53.0590 88.9088 0000756 111.6582 248.4487 15.06404966 24056 STARLINK-1692 1 46542U 20070L 21065.46634939 .00000850 00000-0 75959-4 0 9990 2 46542 53.0576 108.2984 0001059 67.9818 292.1284 15.06404932 23798 STARLINK-1693 1 46543U 20070M 21065.51795741 -.00001067 00000-0 -52751-4 0 9994 2 46543 53.0597 108.0588 0001456 70.8759 289.2388 15.06397555 23804 STARLINK-1694 1 46544U 20070N 21065.38110598 -.00000763 00000-0 -32330-4 0 9994 2 46544 53.0220 93.8648 0001190 83.1073 277.0051 15.06399431 23994 STARLINK-1696 1 46545U 20070P 21065.82020917 .00005088 00000-0 36046-3 0 9999 2 46545 53.0578 106.7095 0001122 82.0838 278.0279 15.06372368 23851 STARLINK-1697 1 46546U 20070Q 21065.80545579 -.00000742 00000-0 -30896-4 0 9996 2 46546 53.0578 106.7753 0001191 63.7271 296.3840 15.06401916 23552 STARLINK-1698 1 46547U 20070R 21065.50321938 -.00000515 00000-0 -15693-4 0 9991 2 46547 53.0571 108.1257 0001239 83.8273 276.2857 15.06388198 23808 STARLINK-1699 1 46548U 20070S 21065.44792320 -.00001178 00000-0 -60226-4 0 9990 2 46548 53.0571 108.3742 0001123 77.0345 283.0769 15.06392544 23793 STARLINK-1700 1 46549U 20070T 21065.47646829 -.00000701 00000-0 -28202-4 0 9995 2 46549 53.0589 108.2502 0001308 77.4671 282.6464 15.06388648 23794 STARLINK-1701 1 46550U 20070U 21065.39631797 -.00000664 00000-0 -25690-4 0 9992 2 46550 53.0582 108.6094 0001032 61.1203 298.9889 15.06401221 23787 STARLINK-1702 1 46551U 20070V 21065.92065322 .62648057 12504-4 77239-3 0 9998 2 46551 52.9647 46.1242 0010495 137.6549 320.6458 16.48963428 24699 STARLINK-1649 1 46552U 20070W 21065.42166295 -.00000920 00000-0 -42908-4 0 9990 2 46552 53.0573 93.4993 0000626 117.3738 242.7315 15.06393696 24006 STARLINK-1664 1 46553U 20070X 21065.44974601 -.00001471 00000-0 -79906-4 0 9991 2 46553 53.0606 78.3637 0001611 50.9641 309.1491 15.06392339 24210 STARLINK-1671 1 46554U 20070Y 21065.76814500 -.00001495 00000-0 -81509-4 0 9996 2 46554 53.0568 91.9491 0000949 96.5913 263.5184 15.06389703 24064 STARLINK-1674 1 46555U 20070Z 21065.70869282 .00027893 00000-0 18916-2 0 9996 2 46555 53.0261 67.2104 0001942 99.3756 260.7452 15.06250651 24406 STARLINK-1676 1 46556U 20070AA 21065.49584130 .00000531 00000-0 54580-4 0 9998 2 46556 53.0585 108.1674 0001698 51.1792 308.9349 15.06394400 23801 STARLINK-1679 1 46557U 20070AB 21065.47325579 .00000315 00000-0 40031-4 0 9993 2 46557 53.0604 93.2685 0001399 69.0326 291.0813 15.06399821 24013 STARLINK-1680 1 46558U 20070AC 21065.48063071 .00000434 00000-0 47993-4 0 9997 2 46558 53.0593 93.2376 0001041 105.7999 254.3104 15.06394798 23984 STARLINK-1681 1 46559U 20070AD 21065.40277253 -.00001070 00000-0 -52968-4 0 9996 2 46559 53.0583 78.5785 0001810 67.5808 292.5372 15.06395484 24202 STARLINK-1706 1 46560U 20070AE 21065.36269373 -.00000862 00000-0 -39000-4 0 9997 2 46560 53.0585 93.7675 0000630 120.8920 239.2131 15.06403308 23991 STARLINK-1709 1 46561U 20070AF 21065.51011802 .00000815 00000-0 73603-4 0 9990 2 46561 53.0592 93.1092 0000881 88.2189 271.8900 15.06398009 24010 STARLINK-1714 1 46562U 20070AG 21065.37973265 -.00001228 00000-0 -63591-4 0 9991 2 46562 53.0562 88.6971 0001324 78.8727 281.2410 15.06397216 24064 STARLINK-1730 1 46563U 20070AH 21065.49400251 -.00000945 00000-0 -44582-4 0 9999 2 46563 53.0581 88.1808 0001332 74.8888 285.2249 15.06397425 24081 STARLINK-1733 1 46564U 20070AJ 21065.47556759 -.00001257 00000-0 -65571-4 0 9991 2 46564 53.0652 88.2414 0001072 83.3906 276.7205 15.06387484 24083 STARLINK-1735 1 46565U 20070AK 21065.39353026 .00000381 00000-0 44463-4 0 9997 2 46565 53.0464 88.6756 0001104 68.2171 291.8935 15.06398212 24067 STARLINK-1740 1 46566U 20070AL 21065.43871396 -.00001211 00000-0 -62433-4 0 9990 2 46566 53.0589 88.4298 0001488 71.8111 288.3040 15.06394800 24072 STARLINK-1741 1 46567U 20070AM 21065.46820437 .00000408 00000-0 46307-4 0 9991 2 46567 53.0716 88.2399 0000912 103.7284 256.3807 15.06390122 24082 STARLINK-1743 1 46568U 20070AN 21065.52532461 -.00001023 00000-0 -49836-4 0 9992 2 46568 53.0565 108.0290 0000952 61.9784 298.1301 15.06396461 23804 STARLINK-1747 1 46569U 20070AP 21065.48294243 -.00001040 00000-0 -50934-4 0 9991 2 46569 53.0579 88.2264 0000955 81.1462 278.9635 15.06396748 24085 STARLINK-1748 1 46570U 20070AQ 21065.45712748 .00000800 00000-0 72586-4 0 9993 2 46570 53.0592 88.3435 0001083 91.0680 269.0433 15.06398970 24073 STARLINK-1753 1 46571U 20070AR 21065.75200553 .00000490 00000-0 51784-4 0 9995 2 46571 53.0577 87.0159 0001154 77.1833 282.9285 15.06395148 24129 STARLINK-1531 1 46572U 20070AS 21065.45529398 -.00000927 00000-0 -43361-4 0 9993 2 46572 53.0585 108.3439 0001237 66.9477 293.1642 15.06388123 23797 STARLINK-1650 1 46573U 20070AT 21065.76444724 .00000516 00000-0 53535-4 0 9993 2 46573 53.0587 91.9657 0000878 93.7054 266.4036 15.06404749 24062 STARLINK-1660 1 46574U 20070AU 21065.48431343 .00000594 00000-0 58738-4 0 9992 2 46574 53.0599 93.2263 0001134 100.6824 259.4293 15.06405063 24015 STARLINK-1675 1 46575U 20070AV 21065.47649193 -.00004652 00000-0 -29379-3 0 9995 2 46575 53.0222 68.2464 0001809 76.1995 283.9195 15.06371380 24353 STARLINK-1677 1 46576U 20070AW 21065.47695060 -.00000139 00000-0 95887-5 0 9994 2 46576 53.0594 93.2558 0002078 107.6132 252.5084 15.06391031 24017 STARLINK-1682 1 46577U 20070AX 21065.50644555 -.00000750 00000-0 -31501-4 0 9994 2 46577 53.0585 93.1240 0001127 82.0216 278.0901 15.06387365 24014 STARLINK-1683 1 46578U 20070AY 21065.35021831 .00000676 00000-0 64310-4 0 9993 2 46578 53.0669 78.7689 0001408 59.7056 300.4072 15.06394331 24200 STARLINK-1705 1 46579U 20070AZ 21065.49169020 -.00000441 00000-0 -10718-4 0 9997 2 46579 53.0598 93.1937 0000875 113.5178 246.5903 15.06392689 24016 STARLINK-1708 1 46580U 20070BA 21065.80131485 -.00000651 00000-0 -24828-4 0 9998 2 46580 53.0635 91.7895 0000942 118.7799 241.3285 15.06401264 24070 STARLINK-1712 1 46581U 20070BB 21065.75240121 .00000429 00000-0 52383-4 0 9999 2 46581 53.0600 86.9326 0001023 72.8636 287.2463 15.02330059 24121 STARLINK-1728 1 46582U 20070BC 21065.49305518 .00000718 00000-0 67082-4 0 9996 2 46582 53.0567 88.1859 0000846 97.2497 262.8588 15.06403542 24081 STARLINK-1729 1 46583U 20070BD 21065.47004173 -.00000932 00000-0 -43714-4 0 9994 2 46583 53.0585 108.2796 0001336 60.9177 299.1946 15.06393321 23794 STARLINK-1732 1 46584U 20070BE 21065.42396469 .00000606 00000-0 59551-4 0 9994 2 46584 53.0581 88.4935 0001234 83.3263 276.7867 15.06389878 24074 STARLINK-1736 1 46585U 20070BF 21065.44239300 .00000574 00000-0 57416-4 0 9999 2 46585 53.0589 88.4147 0001029 81.8861 278.2245 15.06389744 24076 STARLINK-1737 1 46586U 20070BG 21065.43134203 .00000460 00000-0 49755-4 0 9996 2 46586 53.0563 88.4625 0000865 74.1661 285.9423 15.06403283 24078 STARLINK-1744 1 46587U 20070BH 21065.70133619 .00030516 00000-0 40397-3 0 9994 2 46587 52.9998 58.1271 0007577 102.3130 257.8729 15.58036049 24528 STARLINK-1746 1 46588U 20070BJ 21065.74463542 .00000488 00000-0 51643-4 0 9992 2 46588 53.0608 87.0546 0000889 95.8767 264.2323 15.06401297 24139 STARLINK-1749 1 46589U 20070BK 21065.53822823 -.00004995 00000-0 -31620-3 0 9992 2 46589 53.0408 88.1672 0003670 18.3903 341.7218 15.06443766 24088 STARLINK-1754 1 46590U 20070BL 21065.37206713 .00016062 00000-0 20017-3 0 9994 2 46590 53.0640 64.3137 0003366 62.7464 297.3891 15.60105348 24407 STARLINK-1755 1 46591U 20070BM 21065.32813531 -.00000948 00000-0 -44749-4 0 9999 2 46591 53.0774 88.8391 0001202 38.3213 321.7862 15.06392357 23112